POD3 KMSL-KWWR

Flight info

Callsign POD3
Flight time N/A
Altitude 43000
Route BEATS J66 LIT J14 IRW SCUFF
Aircraft CL30/M-SDFGIRW/S

Departure

Time 2026-05-06 02:34
Airport Northwest Alabama Regional Airport (KMSL)

Arrival

Time N/A
Airport West Woodward Airport (KWWR)
Time Latitude Longitude Altitude Speed Heading
2026-05-06 02:19 34.74609 -87.61788 541 ft 0 kts 270°
2026-05-06 02:32 34.74620 -87.61810 541 ft 6 kts 359°
2026-05-06 02:32 34.74686 -87.61794 541 ft 14 kts
2026-05-06 02:33 34.74745 -87.61715 541 ft 12 kts 358°
2026-05-06 02:33 34.74792 -87.61717 541 ft 7 kts
2026-05-06 02:33 34.74855 -87.61706 541 ft 10 kts 12°
2026-05-06 02:34 34.74872 -87.61620 541 ft 16 kts 119°
2026-05-06 02:34 34.74770 -87.61343 539 ft 71 kts 115°
2026-05-06 02:34 34.74458 -87.60487 553 ft 146 kts 115°
2026-05-06 02:34 34.74033 -87.59320 1232 ft 161 kts 116°
2026-05-06 02:35 34.73558 -87.58005 1955 ft 185 kts 116°
2026-05-06 02:35 34.73011 -87.56481 2753 ft 209 kts 116°
2026-05-06 02:35 34.72445 -87.54873 3936 ft 212 kts 116°
2026-05-06 02:35 34.71635 -87.53476 5031 ft 207 kts 152°
2026-05-06 02:36 34.70297 -87.53163 6033 ft 201 kts 197°
2026-05-06 02:36 34.69240 -87.54097 7026 ft 198 kts 242°
2026-05-06 02:36 34.69034 -87.55705 8062 ft 201 kts 271°
2026-05-06 02:36 34.69099 -87.57368 9121 ft 200 kts 268°
2026-05-06 02:37 34.68955 -87.59035 10118 ft 202 kts 261°
2026-05-06 02:37 34.68631 -87.60680 11043 ft 206 kts 257°
2026-05-06 02:37 34.68184 -87.62335 11914 ft 211 kts 255°
2026-05-06 02:37 34.67658 -87.63982 12771 ft 215 kts 253°
2026-05-06 02:38 34.67074 -87.65642 13645 ft 217 kts 251°
2026-05-06 02:38 34.66457 -87.67292 14485 ft 219 kts 251°
2026-05-06 02:38 34.66199 -87.69037 15265 ft 212 kts 280°
2026-05-06 02:38 34.66433 -87.70808 16053 ft 214 kts 281°
2026-05-06 02:39 34.66689 -87.72588 16830 ft 216 kts 282°
2026-05-06 02:39 34.66959 -87.74358 17577 ft 217 kts 282°
2026-05-06 02:39 34.67243 -87.76173 18310 ft 219 kts 282°
2026-05-06 02:39 34.67535 -87.78006 19018 ft 221 kts 283°
2026-05-06 02:40 34.67833 -87.79857 19724 ft 223 kts 283°
2026-05-06 02:40 34.68129 -87.81686 20388 ft 224 kts 283°
2026-05-06 02:40 34.68434 -87.83559 21029 ft 227 kts 283°
2026-05-06 02:40 34.68739 -87.85429 21667 ft 228 kts 283°
2026-05-06 02:41 34.69049 -87.87336 22286 ft 230 kts 283°
2026-05-06 02:41 34.69356 -87.89222 22896 ft 231 kts 283°
2026-05-06 02:41 34.69671 -87.91155 23488 ft 233 kts 283°
2026-05-06 02:41 34.69986 -87.93092 24057 ft 235 kts 283°
2026-05-06 02:42 34.70302 -87.95036 24604 ft 236 kts 283°
2026-05-06 02:42 34.70618 -87.96983 25131 ft 239 kts 283°
2026-05-06 02:42 34.70941 -87.98976 25673 ft 240 kts 283°
2026-05-06 02:42 34.71262 -88.00960 26200 ft 241 kts 283°
2026-05-06 02:43 34.71587 -88.02963 26684 ft 243 kts 283°
2026-05-06 02:43 34.71915 -88.04996 27174 ft 245 kts 283°
2026-05-06 02:43 34.72242 -88.07018 27638 ft 246 kts 283°
2026-05-06 02:43 34.72575 -88.09086 28110 ft 248 kts 283°
2026-05-06 02:44 34.72911 -88.11166 28321 ft 259 kts 283°
2026-05-06 02:44 34.73268 -88.13381 28336 ft 277 kts 282°
2026-05-06 02:44 34.73644 -88.15720 28467 ft 290 kts 282°
2026-05-06 02:44 34.74036 -88.18172 28953 ft 291 kts 283°
2026-05-06 02:45 34.74422 -88.20581 29481 ft 291 kts 283°
2026-05-06 02:45 34.74807 -88.22976 29901 ft 293 kts 282°
2026-05-06 02:45 34.75200 -88.25437 30324 ft 295 kts 282°
2026-05-06 02:45 34.75590 -88.27889 30768 ft 296 kts 283°
2026-05-06 02:46 34.75985 -88.30361 31159 ft 298 kts 283°
2026-05-06 02:46 34.76377 -88.32826 31574 ft 300 kts 283°
2026-05-06 02:46 34.76780 -88.35357 31956 ft 302 kts 283°
2026-05-06 02:46 34.77175 -88.37841 32330 ft 303 kts 283°
2026-05-06 02:47 34.77575 -88.40372 32701 ft 305 kts 283°
2026-05-06 02:47 34.77982 -88.42929 33065 ft 307 kts 282°
2026-05-06 02:47 34.78383 -88.45470 33410 ft 308 kts 283°
2026-05-06 02:47 34.78791 -88.48059 33768 ft 309 kts 282°
2026-05-06 02:48 34.79200 -88.50653 34089 ft 311 kts 283°
2026-05-06 02:48 34.79608 -88.53251 34404 ft 313 kts 283°
2026-05-06 02:48 34.80016 -88.55833 34692 ft 315 kts 282°
2026-05-06 02:48 34.80434 -88.58501 34992 ft 317 kts 283°
2026-05-06 02:49 34.80846 -88.61139 35300 ft 318 kts 283°
2026-05-06 02:49 34.81263 -88.63796 35576 ft 320 kts 283°
2026-05-06 02:49 34.81681 -88.66471 35909 ft 321 kts 282°
2026-05-06 02:49 34.82094 -88.69122 36264 ft 320 kts 282°
2026-05-06 02:50 34.82508 -88.71772 36620 ft 320 kts 282°
2026-05-06 02:50 34.82922 -88.74440 36948 ft 320 kts 282°
2026-05-06 02:50 34.83333 -88.77082 37281 ft 320 kts 282°
2026-05-06 02:50 34.83749 -88.79759 37583 ft 320 kts 282°
2026-05-06 02:51 34.84160 -88.82424 37882 ft 320 kts 282°
2026-05-06 02:51 34.84571 -88.85076 38204 ft 319 kts 282°
2026-05-06 02:51 34.84986 -88.87764 38272 ft 326 kts 282°
2026-05-06 02:52 34.85838 -88.93293 38384 ft 339 kts 283°
2026-05-06 02:52 34.86278 -88.96159 38684 ft 339 kts 283°
2026-05-06 02:52 34.86704 -88.98950 39002 ft 338 kts 283°
2026-05-06 02:52 34.87138 -89.01779 39265 ft 338 kts 283°
2026-05-06 02:53 34.87568 -89.04586 39546 ft 337 kts 283°
2026-05-06 02:53 34.87999 -89.07403 39813 ft 337 kts 283°
2026-05-06 02:53 34.88422 -89.10176 40063 ft 337 kts 283°
2026-05-06 02:53 34.88852 -89.13005 40297 ft 337 kts 283°
2026-05-06 02:54 34.89280 -89.15818 40529 ft 337 kts 283°
2026-05-06 02:54 34.89706 -89.18626 40772 ft 337 kts 283°
2026-05-06 02:54 34.90134 -89.21440 41010 ft 336 kts 283°
2026-05-06 02:54 34.90561 -89.24255 41248 ft 336 kts 283°
2026-05-06 02:55 34.90981 -89.27044 41483 ft 335 kts 283°
2026-05-06 02:55 34.91404 -89.29858 41719 ft 334 kts 283°
2026-05-06 02:55 34.91820 -89.32622 41951 ft 333 kts 283°
2026-05-06 02:55 34.92238 -89.35414 42185 ft 332 kts 283°
2026-05-06 02:56 34.92649 -89.38150 42416 ft 330 kts 283°
2026-05-06 02:56 34.93063 -89.40905 42645 ft 329 kts 283°
2026-05-06 02:56 34.93476 -89.43676 42835 ft 329 kts 283°
2026-05-06 02:57 34.94305 -89.49218 42853 ft 338 kts 283°
2026-05-06 02:57 34.95157 -89.54948 42853 ft 347 kts 282°
2026-05-06 02:58 34.96025 -89.60812 42852 ft 357 kts 282°
2026-05-06 02:58 34.96918 -89.66858 42862 ft 365 kts 282°
2026-05-06 02:59 34.97831 -89.73062 42867 ft 375 kts 282°
2026-05-06 02:59 34.98753 -89.79356 42866 ft 384 kts 282°
2026-05-06 03:00 34.99699 -89.85833 42859 ft 393 kts 281°
2026-05-06 03:00 35.00666 -89.92484 42850 ft 396 kts 281°
2026-05-06 03:01 35.01184 -89.99192 42848 ft 401 kts 270°
2026-05-06 03:01 35.00755 -90.05959 42840 ft 403 kts 269°
2026-05-06 03:02 35.00227 -90.12768 42837 ft 404 kts 268°
2026-05-06 03:02 34.99659 -90.19595 42835 ft 404 kts 268°
2026-05-06 03:03 34.99071 -90.26424 42836 ft 404 kts 268°
2026-05-06 03:03 34.98477 -90.33202 42836 ft 404 kts 268°
2026-05-06 03:04 34.97875 -90.40028 42830 ft 405 kts 268°
2026-05-06 03:04 34.97264 -90.46871 42837 ft 406 kts 268°
2026-05-06 03:05 34.96649 -90.53719 42825 ft 406 kts 268°
2026-05-06 03:05 34.96027 -90.60605 42822 ft 407 kts 268°
2026-05-06 03:06 34.95401 -90.67494 42835 ft 408 kts 268°
2026-05-06 03:06 34.94772 -90.74374 42826 ft 409 kts 268°
2026-05-06 03:07 34.94134 -90.81297 42826 ft 408 kts 268°
2026-05-06 03:07 34.93499 -90.88145 42827 ft 409 kts 268°
2026-05-06 03:08 34.92857 -90.95049 42822 ft 409 kts 268°
2026-05-06 03:08 34.92206 -91.01977 42821 ft 410 kts 268°
2026-05-06 03:09 34.91556 -91.08876 42824 ft 411 kts 268°
2026-05-06 03:09 34.90897 -91.15814 42821 ft 412 kts 268°
2026-05-06 03:10 34.90229 -91.22810 42828 ft 413 kts 267°
2026-05-06 03:10 34.89561 -91.29736 42828 ft 414 kts 267°
2026-05-06 03:11 34.88887 -91.36712 42827 ft 414 kts 267°
2026-05-06 03:11 34.88212 -91.43646 42826 ft 415 kts 267°
2026-05-06 03:12 34.87527 -91.50644 42827 ft 415 kts 267°
2026-05-06 03:12 34.86838 -91.57629 42826 ft 415 kts 267°
2026-05-06 03:13 34.86147 -91.64602 42825 ft 415 kts 267°
2026-05-06 03:13 34.85454 -91.71555 42835 ft 416 kts 266°
2026-05-06 03:14 34.84756 -91.78521 42832 ft 416 kts 266°
2026-05-06 03:14 34.84050 -91.85514 42826 ft 416 kts 266°
2026-05-06 03:15 34.83343 -91.92490 42823 ft 415 kts 266°
2026-05-06 03:15 34.82629 -91.99483 42821 ft 415 kts 266°
2026-05-06 03:16 34.81916 -92.06430 42820 ft 415 kts 266°
2026-05-06 03:16 34.81229 -92.13396 42814 ft 414 kts 270°
2026-05-06 03:17 34.81562 -92.20295 42818 ft 411 kts 278°
2026-05-06 03:17 34.82138 -92.27222 42817 ft 410 kts 278°
2026-05-06 03:18 34.82738 -92.34108 42816 ft 410 kts 278°
2026-05-06 03:18 34.83350 -92.41014 42816 ft 410 kts 278°
2026-05-06 03:19 34.83960 -92.47912 42812 ft 410 kts 278°
2026-05-06 03:19 34.84569 -92.54800 42807 ft 410 kts 278°
2026-05-06 03:20 34.85480 -92.65179 42800 ft 410 kts 278°
2026-05-06 03:20 34.86082 -92.72091 42810 ft 411 kts 278°
2026-05-06 03:21 34.86680 -92.79005 42809 ft 411 kts 278°
2026-05-06 03:21 34.87274 -92.85915 42807 ft 410 kts 278°
2026-05-06 03:22 34.87860 -92.92780 42806 ft 410 kts 278°
2026-05-06 03:22 34.88448 -92.99712 42806 ft 411 kts 278°
2026-05-06 03:23 34.89029 -93.06628 42805 ft 412 kts 278°
2026-05-06 03:23 34.89610 -93.13560 42804 ft 412 kts 278°
2026-05-06 03:24 34.90184 -93.20488 42803 ft 411 kts 278°
2026-05-06 03:24 34.90758 -93.27444 42802 ft 410 kts 278°
2026-05-06 03:25 34.91324 -93.34363 42801 ft 409 kts 278°
2026-05-06 03:25 34.91881 -93.41216 42800 ft 409 kts 278°
2026-05-06 03:26 34.92439 -93.48126 42799 ft 409 kts 278°
2026-05-06 03:26 34.92990 -93.55012 42798 ft 408 kts 278°
2026-05-06 03:27 34.93537 -93.61890 42797 ft 408 kts 278°
2026-05-06 03:27 34.94082 -93.68790 42813 ft 407 kts 277°
2026-05-06 03:28 34.94619 -93.75633 42818 ft 407 kts 277°
2026-05-06 03:28 34.95154 -93.82504 42823 ft 406 kts 277°
2026-05-06 03:29 34.95682 -93.89336 42827 ft 406 kts 277°
2026-05-06 03:29 34.96208 -93.96197 42828 ft 406 kts 277°
2026-05-06 03:30 34.96723 -94.02962 42829 ft 405 kts 277°
2026-05-06 03:30 34.97239 -94.09792 42831 ft 405 kts 277°
2026-05-06 03:31 34.97752 -94.16633 42840 ft 404 kts 277°
2026-05-06 03:31 34.98258 -94.23428 42848 ft 404 kts 277°
2026-05-06 03:32 34.98761 -94.30240 42855 ft 403 kts 277°
2026-05-06 03:32 34.99258 -94.37025 42858 ft 403 kts 277°
2026-05-06 03:33 34.99751 -94.43809 42858 ft 403 kts 277°
2026-05-06 03:33 35.00242 -94.50613 42859 ft 402 kts 277°
2026-05-06 03:34 35.00727 -94.57381 42860 ft 402 kts 277°
2026-05-06 03:34 35.01208 -94.64163 42859 ft 401 kts 277°
2026-05-06 03:35 35.01876 -94.70898 42874 ft 400 kts 281°
2026-05-06 03:35 35.02803 -94.77596 42871 ft 399 kts 281°
2026-05-06 03:36 35.03718 -94.84275 42873 ft 398 kts 281°
2026-05-06 03:36 35.04622 -94.90926 42880 ft 399 kts 281°
2026-05-06 03:37 35.05527 -94.97619 42887 ft 400 kts 281°
2026-05-06 03:37 35.06413 -95.04205 42893 ft 402 kts 281°
2026-05-06 03:38 35.07331 -95.11058 42894 ft 402 kts 281°
2026-05-06 03:38 35.08227 -95.17780 42893 ft 402 kts 281°
2026-05-06 03:39 35.09122 -95.24522 42892 ft 402 kts 281°
2026-05-06 03:39 35.10012 -95.31250 42894 ft 401 kts 281°
2026-05-06 03:40 35.10886 -95.37892 42911 ft 402 kts 281°
2026-05-06 03:40 35.11762 -95.44572 42915 ft 402 kts 281°
2026-05-06 03:41 35.12590 -95.51315 42919 ft 402 kts 280°
2026-05-06 03:41 35.13396 -95.58038 42920 ft 402 kts 280°
2026-05-06 03:42 35.14200 -95.64796 42919 ft 402 kts 280°
2026-05-06 03:42 35.14999 -95.71548 42933 ft 402 kts 279°
2026-05-06 03:43 35.15794 -95.78291 42932 ft 402 kts 279°
2026-05-06 03:43 35.16590 -95.85081 42930 ft 402 kts 279°
2026-05-06 03:44 35.17374 -95.91805 42930 ft 402 kts 279°
2026-05-06 03:44 35.18164 -95.98606 42929 ft 402 kts 279°
2026-05-06 03:45 35.18942 -96.05350 42931 ft 402 kts 279°
2026-05-06 03:45 35.19718 -96.12101 42938 ft 402 kts 279°
2026-05-06 03:46 35.20494 -96.18887 42945 ft 402 kts 279°
2026-05-06 03:46 35.21262 -96.25626 42953 ft 402 kts 279°
2026-05-06 03:47 35.22029 -96.32391 42953 ft 402 kts 279°
2026-05-06 03:47 35.22780 -96.39053 42951 ft 402 kts 279°
2026-05-06 03:48 35.23541 -96.45833 42950 ft 402 kts 279°
2026-05-06 03:48 35.24295 -96.52589 42948 ft 402 kts 279°
2026-05-06 03:49 35.25049 -96.59370 42947 ft 402 kts 279°